TimeEST,TemperatureF,Dew PointF,Humidity,Sea Level PressureIn,VisibilityMPH,Wind Direction,Wind SpeedMPH,Gust SpeedMPH,PrecipitationIn,Events,Conditions,WindDirDegrees,DateUTC
12:53 AM,69.1,66.0,90,30.12,10.0,Calm,Calm,-,N/A,,Clear,0,2013-01-04 05:53:00
1:53 AM,66.9,66.0,97,30.12,10.0,Calm,Calm,-,N/A,,Clear,0,2013-01-04 06:53:00
2:20 AM,62.6,62.6,100,30.12,2.0,Calm,Calm,-,N/A,,Partly Cloudy,0,2013-01-04 07:20:00
2:23 AM,62.6,62.6,100,30.12,1.0,Calm,Calm,-,N/A,,Mist,0,2013-01-04 07:23:00
2:30 AM,64.4,64.4,100,30.12,0.5,Calm,Calm,-,N/A,Fog,Fog,0,2013-01-04 07:30:00
2:53 AM,64.0,63.0,96,30.12,0.5,Calm,Calm,-,N/A,Fog,Fog,0,2013-01-04 07:53:00
3:06 AM,64.4,64.4,100,30.12,1.0,Calm,Calm,-,N/A,,Mist,0,2013-01-04 08:06:00
3:14 AM,64.4,64.4,100,30.12,0.5,Calm,Calm,-,N/A,Fog,Fog,0,2013-01-04 08:14:00
3:53 AM,63.0,63.0,100,30.12,0.5,Calm,Calm,-,0.01,Fog,Fog,0,2013-01-04 08:53:00
4:19 AM,64.4,64.4,100,30.12,1.5,Calm,Calm,-,N/A,,Scattered Clouds,0,2013-01-04 09:19:00
4:25 AM,62.6,62.6,100,30.12,0.8,Calm,Calm,-,N/A,,Mist,0,2013-01-04 09:25:00
4:33 AM,62.6,62.6,100,30.12,1.0,Calm,Calm,-,N/A,,Mist,0,2013-01-04 09:33:00
4:44 AM,60.8,60.8,100,30.12,0.5,Calm,Calm,-,N/A,Fog,Fog,0,2013-01-04 09:44:00
4:53 AM,62.1,62.1,100,30.12,0.5,Calm,Calm,-,N/A,Fog,Fog,0,2013-01-04 09:53:00
5:06 AM,62.6,62.6,100,30.12,2.0,Calm,Calm,-,N/A,,Mostly Cloudy,0,2013-01-04 10:06:00
5:14 AM,62.6,62.6,100,30.12,7.0,Calm,Calm,-,N/A,,Overcast,0,2013-01-04 10:14:00
5:19 AM,62.6,60.8,94,30.12,1.5,Calm,Calm,-,N/A,,Overcast,0,2013-01-04 10:19:00
5:25 AM,60.8,60.8,100,30.13,0.5,Calm,Calm,-,N/A,Fog,Fog,0,2013-01-04 10:25:00
5:36 AM,60.8,60.8,100,30.13,0.2,Calm,Calm,-,N/A,Fog,Fog,0,2013-01-04 10:36:00
5:53 AM,61.0,61.0,100,30.13,0.5,Calm,Calm,-,N/A,Fog,Fog,0,2013-01-04 10:53:00
6:53 AM,63.0,63.0,100,30.14,0.5,Calm,Calm,-,N/A,Fog,Fog,0,2013-01-04 11:53:00
7:00 AM,64.4,62.6,94,30.15,0.2,Calm,Calm,-,N/A,Fog,Fog,0,2013-01-04 12:00:00
7:40 AM,64.4,64.4,100,30.17,0.2,Calm,Calm,-,N/A,Fog,Fog,0,2013-01-04 12:40:00
7:46 AM,64.4,64.4,100,30.17,10.0,Calm,Calm,-,N/A,,Clear,0,2013-01-04 12:46:00
7:53 AM,66.2,66.2,100,30.17,10.0,Calm,Calm,-,N/A,,Clear,0,2013-01-04 12:53:00
8:53 AM,73.0,71.1,93,30.20,10.0,NNE,3.5,-,N/A,,Clear,30,2013-01-04 13:53:00
9:53 AM,75.9,71.1,85,30.21,10.0,Calm,Calm,-,N/A,,Scattered Clouds,0,2013-01-04 14:53:00
10:43 AM,80.6,69.8,70,30.20,10.0,Calm,Calm,-,N/A,,Mostly Cloudy,0,2013-01-04 15:43:00
10:53 AM,79.0,69.1,72,30.20,10.0,Calm,Calm,-,N/A,,Mostly Cloudy,0,2013-01-04 15:53:00
11:03 AM,78.8,68.0,69,30.20,10.0,Calm,Calm,-,N/A,,Scattered Clouds,0,2013-01-04 16:03:00
11:53 AM,80.1,66.0,62,30.18,10.0,Calm,Calm,-,N/A,,Mostly Cloudy,0,2013-01-04 16:53:00
12:49 PM,78.8,66.2,65,30.16,10.0,NNW,4.6,-,N/A,,Overcast,330,2013-01-04 17:49:00
12:53 PM,80.1,66.9,64,30.16,10.0,NNW,3.5,-,N/A,,Overcast,340,2013-01-04 17:53:00
1:00 PM,80.6,68.0,65,30.15,10.0,North,5.8,-,N/A,,Overcast,360,2013-01-04 18:00:00
1:47 PM,80.6,66.2,61,30.14,10.0,Calm,Calm,-,0.00,Tornado,Funnel Cloud,0,2013-01-04 18:47:00
1:51 PM,80.6,66.2,61,30.13,10.0,Calm,Calm,-,0.00,,Overcast,0,2013-01-04 18:51:00
1:53 PM,80.1,66.9,64,30.14,10.0,SE,3.5,-,0.00,,Mostly Cloudy,130,2013-01-04 18:53:00
2:53 PM,81.0,66.9,62,30.13,10.0,East,4.6,-,0.00,,Mostly Cloudy,80,2013-01-04 19:53:00
3:53 PM,80.1,68.0,67,30.14,10.0,East,10.4,-,N/A,,Partly Cloudy,100,2013-01-04 20:53:00
4:53 PM,77.0,68.0,74,30.14,10.0,ESE,6.9,-,N/A,,Partly Cloudy,110,2013-01-04 21:53:00
5:53 PM,75.0,69.1,82,30.16,10.0,ESE,5.8,-,N/A,,Clear,120,2013-01-04 22:53:00
6:53 PM,73.9,70.0,87,30.19,10.0,East,3.5,-,N/A,,Overcast,100,2013-01-04 23:53:00
7:53 PM,73.0,69.1,87,30.21,10.0,East,3.5,-,N/A,,Mostly Cloudy,80,2013-01-05 00:53:00
8:53 PM,71.1,69.1,93,30.22,10.0,East,3.5,-,N/A,,Mostly Cloudy,90,2013-01-05 01:53:00
9:53 PM,72.0,70.0,93,30.23,10.0,East,3.5,-,N/A,,Mostly Cloudy,90,2013-01-05 02:53:00
10:53 PM,70.0,68.0,93,30.22,10.0,Calm,Calm,-,N/A,,Mostly Cloudy,0,2013-01-05 03:53:00
11:53 PM,69.1,69.1,100,30.22,10.0,Calm,Calm,-,N/A,,Clear,0,2013-01-05 04:53:00